| time (UTC) | temp C | wind direction | speed KPH | gust KPH | rain 1hr cm | rain 24hr cm | rain mn cm | humidity % | barometer mb |
| 20260903200759 | 21 | 317 | 6.4 | 14.5 | 0.61 | 2.41 | 2.41 | 93 | 1015.5 |
| 20260903195759 | 21 | 342 | 8.0 | 14.5 | 0.58 | 2.39 | 2.39 | 92 | 1014.8 |
| 20260903194805 | 21 | 350 | 11.3 | 25.7 | 0.41 | 2.21 | 2.21 | 92 | 1014.8 |
| 20260903193759 | 21 | 333 | 11.3 | 29.0 | 0.00 | 1.80 | 1.80 | 92 | 1014.9 |
| 20260903192801 | 22 | 298 | 0.0 | 11.3 | 0.00 | 1.80 | 1.80 | 93 | 1014.5 |
| 20260903191759 | 22 | 344 | 3.2 | 8.0 | 0.00 | 1.80 | 1.80 | 93 | 1013.8 |
| 20260903190755 | 22 | 294 | 3.2 | 14.5 | 0.00 | 1.80 | 1.80 | 93 | 1013.7 |
| 20260903185756 | 23 | 349 | 3.2 | 17.7 | 0.00 | 1.80 | 1.80 | 93 | 1014.2 |
| 20260903184753 | 23 | 184 | 0.0 | 6.4 | 0.00 | 1.80 | 1.80 | 94 | 1013.5 |
| 20260903183755 | 23 | 98 | 0.0 | 0.0 | 0.00 | 1.80 | 1.80 | 93 | 1013.5 |
| 20260903182753 | 23 | 98 | 0.0 | 0.0 | 0.00 | 1.80 | 1.80 | 94 | 1013.6 |
| 20260903181751 | 23 | 98 | 0.0 | 0.0 | 0.00 | 1.80 | 1.80 | 94 | 1013.5 |
| 20260903180755 | 23 | 98 | 0.0 | 0.0 | 0.00 | 1.80 | 1.80 | 94 | 1013.4 |
| 20260903175754 | 23 | 98 | 0.0 | 0.0 | 0.00 | 1.80 | 1.80 | 93 | 1013.4 |
| 20260903174752 | 23 | 98 | 0.0 | 0.0 | 0.00 | 1.80 | 1.80 | 94 | 1013.4 |
| 20260903173752 | 22 | 98 | 0.0 | 0.0 | 0.03 | 1.80 | 1.80 | 94 | 1013.3 |
| 20260903172756 | 22 | 98 | 0.0 | 0.0 | 0.51 | 1.80 | 1.80 | 94 | 1013.5 |
| 20260903171751 | 22 | 98 | 0.0 | 0.0 | 0.84 | 1.80 | 1.80 | 95 | 1013.4 |
| 20260903170751 | 22 | 98 | 0.0 | 0.0 | 0.84 | 1.80 | 1.80 | 94 | 1013.4 |
| 20260903165753 | 21 | 98 | 0.0 | 0.0 | 0.84 | 1.80 | 1.80 | 94 | 1013.5 |
| 20260903164756 | 21 | 345 | 0.0 | 3.2 | 0.84 | 1.80 | 1.80 | 94 | 1013.7 |
| 20260903163749 | 20 | 344 | 3.2 | 19.3 | 0.97 | 1.78 | 1.78 | 91 | 1013.7 |
| 20260903162752 | 20 | 203 | 8.0 | 43.5 | 0.84 | 1.30 | 1.35 | 89 | 1014.8 |
| 20260903161751 | 20 | 200 | 0.0 | 6.4 | 0.97 | 0.97 | 0.97 | 89 | 1014.9 |
| 20260903160751 | 20 | 217 | 0.0 | 8.0 | 0.97 | 0.97 | 0.97 | 87 | 1015.5 |
| 20260903155750 | 20 | 329 | 3.2 | 8.0 | 0.97 | 0.97 | 0.97 | 86 | 1015.5 |
| 20260903154750 | 21 | 156 | 11.3 | 29.0 | 0.97 | 0.97 | 0.97 | 84 | 1015.7 |
| 20260903153746 | 22 | 130 | 14.5 | 32.2 | 0.81 | 0.81 | 0.84 | 82 | 1016.2 |
| 20260903152751 | 24 | 282 | 8.0 | 51.5 | 0.46 | 0.46 | 0.46 | 82 | 1017.2 |
| 20260903151743 | 26 | 344 | 0.0 | 8.0 | 0.00 | 0.00 | 0.00 | 83 | 1016.3 |
| 20260903150743 | 26 | 198 | 0.0 | 0.0 | 0.00 | 0.00 | 0.00 | 81 | 1014.8 |
| 20260903145746 | 26 | 198 | 0.0 | 0.0 | 0.00 | 0.00 | 0.00 | 80 | 1014.4 |
| 20260903144745 | 26 | 198 | 0.0 | 0.0 | 0.00 | 0.00 | 0.00 | 80 | 1014.0 |
| 20260903143743 | 26 | 198 | 0.0 | 6.4 | 0.00 | 0.00 | 0.00 | 80 | 1014.1 |
| 20260903142741 | 26 | 182 | 0.0 | 11.3 | 0.00 | 0.00 | 0.00 | 80 | 1014.2 |
| 20260903141744 | 25 | 327 | 0.0 | 6.4 | 0.00 | 0.00 | 0.00 | 82 | 1014.1 |
| 20260903140740 | 25 | 327 | 0.0 | 3.2 | 0.00 | 0.00 | 0.00 | 84 | 1014.1 |
| 20260903135749 | 25 | 327 | 0.0 | 6.4 | 0.00 | 0.00 | 0.00 | 85 | 1014.0 |
| 20260903134744 | 25 | 316 | 0.0 | 6.4 | 0.00 | 0.00 | 0.00 | 85 | 1014.1 |
| 20260903133739 | 24 | 317 | 0.0 | 6.4 | 0.00 | 0.00 | 0.00 | 86 | 1014.3 |
| 20260903132736 | 23 | 193 | 0.0 | 6.4 | 0.00 | 0.00 | 0.00 | 89 | 1014.3 |
| 20260903131735 | 23 | 269 | 0.0 | 0.0 | 0.00 | 0.00 | 0.00 | 91 | 1014.2 |
| 20260903130736 | 22 | 233 | 0.0 | 0.0 | 0.00 | 0.00 | 0.00 | 93 | 1014.2 |
| 20260903125735 | 22 | 181 | 0.0 | 0.0 | 0.00 | 0.00 | 0.00 | 93 | 1014.3 |
| 20260903124737 | 22 | 181 | 0.0 | 0.0 | 0.00 | 0.00 | 0.00 | 92 | 1014.5 |
| 20260903123737 | 21 | 181 | 0.0 | 0.0 | 0.00 | 0.00 | 0.00 | 92 | 1014.4 |
| 20260903122736 | 21 | 181 | 0.0 | 0.0 | 0.00 | 0.00 | 0.00 | 92 | 1014.6 |
| 20260903121730 | 21 | 181 | 0.0 | 0.0 | 0.00 | 0.00 | 0.00 | 92 | 1014.6 |
| 20260903120731 | 21 | 181 | 0.0 | 0.0 | 0.00 | 0.00 | 0.00 | 91 | 1014.5 |
| 20260903115728 | 21 | 181 | 0.0 | 0.0 | 0.00 | 0.00 | 0.00 | 91 | 1014.6 |
| 20260903114728 | 21 | 181 | 0.0 | 0.0 | 0.00 | 0.00 | 0.00 | 91 | 1014.5 |
| 20260903113730 | 21 | 181 | 0.0 | 0.0 | 0.00 | 0.00 | 0.00 | 91 | 1014.5 |
| 20260903112729 | 21 | 181 | 3.2 | 6.4 | 0.00 | 0.00 | 0.00 | 91 | 1014.4 |
| 20260903111727 | 21 | 202 | 0.0 | 0.0 | 0.00 | 0.00 | 0.00 | 90 | 1014.3 |
| 20260903110727 | 21 | 202 | 0.0 | 0.0 | 0.00 | 0.00 | 0.00 | 90 | 1014.3 |
| 20260903105730 | 21 | 202 | 0.0 | 0.0 | 0.00 | 0.00 | 0.00 | 90 | 1014.2 |
| 20260903104729 | 21 | 202 | 0.0 | 0.0 | 0.00 | 0.00 | 0.00 | 90 | 1014.1 |
| 20260903103729 | 21 | 202 | 0.0 | 0.0 | 0.00 | 0.00 | 0.00 | 90 | 1013.9 |
| 20260903102728 | 21 | 202 | 0.0 | 0.0 | 0.00 | 0.00 | 0.00 | 90 | 1013.9 |
| 20260903101728 | 21 | 202 | 0.0 | 0.0 | 0.00 | 0.00 | 0.00 | 90 | 1013.8 |
| 20260903100729 | 21 | 202 | 0.0 | 0.0 | 0.00 | 0.00 | 0.00 | 90 | 1013.8 |
| 20260903095728 | 22 | 202 | 0.0 | 0.0 | 0.00 | 0.00 | 0.00 | 90 | 1013.9 |
| 20260903094727 | 22 | 202 | 0.0 | 0.0 | 0.00 | 0.00 | 0.00 | 90 | 1013.8 |
| 20260903093726 | 22 | 202 | 0.0 | 0.0 | 0.00 | 0.00 | 0.00 | 90 | 1013.8 |
| 20260903092726 | 22 | 202 | 0.0 | 0.0 | 0.00 | 0.00 | 0.00 | 90 | 1013.7 |
| 20260903091727 | 22 | 202 | 0.0 | 0.0 | 0.00 | 0.00 | 0.00 | 90 | 1013.5 |
| 20260903090728 | 22 | 202 | 0.0 | 0.0 | 0.00 | 0.00 | 0.00 | 90 | 1013.5 |
| 20260903085725 | 22 | 202 | 0.0 | 0.0 | 0.00 | 0.00 | 0.00 | 90 | 1013.5 |
| 20260903084726 | 22 | 202 | 0.0 | 0.0 | 0.00 | 0.00 | 0.00 | 90 | 1013.4 |
| 20260903083727 | 22 | 202 | 0.0 | 0.0 | 0.00 | 0.00 | 0.00 | 90 | 1013.3 |
| 20260903082725 | 22 | 202 | 0.0 | 0.0 | 0.00 | 0.00 | 0.00 | 90 | 1013.2 |
| 20260903081724 | 22 | 202 | 0.0 | 0.0 | 0.00 | 0.00 | 0.00 | 90 | 1013.2 |
| 20260903080725 | 22 | 202 | 0.0 | 0.0 | 0.00 | 0.00 | 0.00 | 90 | 1013.2 |
| 20260903075719 | 22 | 202 | 0.0 | 0.0 | 0.00 | 0.00 | 0.00 | 90 | 1013.3 |
| 20260903074722 | 22 | 202 | 0.0 | 0.0 | 0.00 | 0.00 | 0.00 | 90 | 1013.4 |
| 20260903073719 | 22 | 202 | 0.0 | 0.0 | 0.00 | 0.00 | 0.00 | 90 | 1013.3 |
| 20260903072720 | 22 | 202 | 0.0 | 0.0 | 0.00 | 0.00 | 0.00 | 90 | 1013.4 |
| 20260903071719 | 22 | 202 | 0.0 | 0.0 | 0.00 | 0.00 | 0.00 | 89 | 1013.4 |
| 20260903070720 | 22 | 202 | 0.0 | 0.0 | 0.00 | 0.00 | 0.00 | 89 | 1013.4 |
| 20260903065719 | 22 | 202 | 0.0 | 0.0 | 0.00 | 0.00 | 0.00 | 89 | 1013.3 |
| 20260903064718 | 22 | 202 | 0.0 | 0.0 | 0.00 | 0.00 | 0.00 | 89 | 1013.3 |
| 20260903063725 | 22 | 202 | 0.0 | 6.4 | 0.00 | 0.00 | 0.00 | 89 | 1013.1 |
| 20260903062718 | 22 | 202 | 0.0 | 0.0 | 0.00 | 0.00 | 0.00 | 89 | 1013.3 |
| 20260903061714 | 22 | 202 | 3.2 | 8.0 | 0.00 | 0.00 | 0.00 | 89 | 1013.4 |
| 20260903060711 | 22 | 192 | 0.0 | 0.0 | 0.00 | 0.00 | 0.00 | 88 | 1013.5 |
| 20260903055711 | 22 | 189 | 0.0 | 0.0 | 0.00 | 0.00 | 0.00 | 88 | 1013.5 |
| 20260903054715 | 22 | 189 | 0.0 | 0.0 | 0.00 | 0.00 | 0.00 | 88 | 1013.5 |
| 20260903053712 | 22 | 189 | 0.0 | 0.0 | 0.00 | 0.00 | 0.00 | 88 | 1013.4 |
| 20260903052711 | 22 | 189 | 0.0 | 3.2 | 0.00 | 0.00 | 0.00 | 88 | 1013.5 |
| 20260903051712 | 23 | 205 | 0.0 | 3.2 | 0.00 | 0.00 | 0.00 | 87 | 1013.6 |
| 20260903050719 | 23 | 205 | 0.0 | 6.4 | 0.00 | 0.00 | 0.00 | 87 | 1013.6 |
| 20260903045710 | 23 | 205 | 0.0 | 0.0 | 0.00 | 0.00 | 0.00 | 87 | 1013.7 |
| 20260903044711 | 23 | 205 | 0.0 | 3.2 | 0.00 | 0.00 | 0.00 | 87 | 1013.4 |
| 20260903043709 | 23 | 205 | 0.0 | 6.4 | 0.00 | 0.00 | 0.00 | 86 | 1013.5 |
| 20260903042710 | 23 | 187 | 3.2 | 14.5 | 0.00 | 0.00 | 0.00 | 86 | 1013.5 |
| 20260903041709 | 23 | 191 | 6.4 | 14.5 | 0.00 | 0.00 | 0.00 | 86 | 1013.5 |
| 20260903040709 | 24 | 198 | 0.0 | 6.4 | 0.00 | 0.00 | 0.00 | 85 | 1013.3 |
| 20260903035707 | 24 | 194 | 0.0 | 11.3 | 0.00 | 0.00 | 0.00 | 85 | 1013.3 |
| 20260903034710 | 24 | 194 | 3.2 | 8.0 | 0.00 | 0.00 | 0.00 | 85 | 1013.4 |
| 20260903033710 | 25 | 188 | 6.4 | 19.3 | 0.00 | 0.00 | 0.00 | 86 | 1013.5 |
| 20260903032704 | 24 | 175 | 3.2 | 14.5 | 0.00 | 0.00 | 0.00 | 86 | 1013.1 |
| 20260903031703 | 24 | 165 | 6.4 | 17.7 | 0.00 | 0.00 | 0.00 | 85 | 1013.5 |
| 20260903030701 | 24 | 200 | 3.2 | 8.0 | 0.00 | 0.00 | 0.00 | 85 | 1012.8 |
| 20260903025705 | 25 | 355 | 0.0 | 3.2 | 0.00 | 0.00 | 0.00 | 85 | 1012.6 |
| 20260903024704 | 24 | 355 | 0.0 | 3.2 | 0.00 | 0.00 | 0.00 | 85 | 1011.7 |
| 20260903023700 | 25 | 355 | 0.0 | 6.4 | 0.00 | 0.00 | 0.00 | 85 | 1012.3 |
| 20260903022701 | 25 | 325 | 0.0 | 0.0 | 0.00 | 0.00 | 0.00 | 85 | 1012.1 |
| 20260903021703 | 25 | 325 | 0.0 | 0.0 | 0.00 | 0.00 | 0.00 | 84 | 1012.6 |
| 20260903020710 | 25 | 325 | 0.0 | 3.2 | 0.00 | 0.00 | 0.00 | 82 | 1013.1 |
| 20260903015659 | 25 | 325 | 0.0 | 3.2 | 0.00 | 0.00 | 0.00 | 81 | 1013.4 |
| 20260903014655 | 26 | 325 | 0.0 | 3.2 | 0.00 | 0.00 | 0.00 | 79 | 1013.3 |
| 20260903013655 | 26 | 325 | 3.2 | 8.0 | 0.00 | 0.00 | 0.00 | 78 | 1013.3 |
| 20260903012656 | 27 | 350 | 6.4 | 14.5 | 0.00 | 0.00 | 0.00 | 76 | 1013.0 |
| 20260903011657 | 27 | 306 | 6.4 | 11.3 | 0.00 | 0.00 | 0.00 | 70 | 1013.0 |
| 20260903010655 | 27 | 323 | 3.2 | 8.0 | 0.00 | 0.00 | 0.00 | 67 | 1012.6 |
| 20260903005654 | 27 | 210 | 0.0 | 3.2 | 0.00 | 0.00 | 0.00 | 66 | 1012.4 |
| 20260903004656 | 28 | 192 | 3.2 | 8.0 | 0.00 | 0.00 | 0.00 | 65 | 1012.3 |
| 20260903003659 | 28 | 192 | 6.4 | 14.5 | 0.00 | 0.00 | 0.00 | 64 | 1012.2 |
| 20260903002654 | 28 | 181 | 8.0 | 37.0 | 0.00 | 0.00 | 0.00 | 72 | 1012.2 |
| 20260903001656 | 27 | 193 | 3.2 | 8.0 | 0.00 | 0.00 | 0.00 | 76 | 1011.9 |
| 20260903000653 | 29 | 234 | 0.0 | 6.4 | 0.00 | 0.00 | 0.00 | 70 | 1012.1 |
| 20260902235653 | 30 | 182 | 0.0 | 6.4 | 0.00 | 0.00 | 0.00 | 67 | 1011.9 |
| 20260902234653 | 30 | 186 | 3.2 | 14.5 | 0.00 | 0.00 | 0.00 | 67 | 1012.3 |
| 20260902233652 | 30 | 171 | 0.0 | 6.4 | 0.00 | 0.00 | 0.00 | 67 | 1012.3 |
| 20260902232652 | 30 | 190 | 0.0 | 3.2 | 0.00 | 0.00 | 0.00 | 67 | 1012.2 |
| 20260902231652 | 30 | 185 | 0.0 | 6.4 | 0.00 | 0.00 | 0.00 | 66 | 1012.3 |
| 20260902230650 | 30 | 180 | 3.2 | 11.3 | 0.00 | 0.00 | 0.00 | 66 | 1012.4 |
| 20260902225658 | 31 | 182 | 3.2 | 14.5 | 0.00 | 0.00 | 0.00 | 65 | 1012.4 |
| 20260902224651 | 31 | 227 | 3.2 | 6.4 | 0.00 | 0.00 | 0.00 | 64 | 1012.4 |
| 20260902223650 | 31 | 206 | 6.4 | 19.3 | 0.00 | 0.00 | 0.00 | 63 | 1012.1 |
| 20260902222649 | 31 | 200 | 6.4 | 19.3 | 0.00 | 0.00 | 0.00 | 61 | 1011.8 |
| 20260902221651 | 32 | 238 | 3.2 | 25.7 | 0.00 | 0.00 | 0.00 | 62 | 1011.8 |
| 20260902220649 | 31 | 334 | 3.2 | 14.5 | 0.00 | 0.00 | 0.00 | 62 | 1011.8 |
| 20260902215645 | 32 | 180 | 3.2 | 11.3 | 0.00 | 0.00 | 0.00 | 61 | 1011.9 |
| 20260902214648 | 32 | 159 | 3.2 | 8.0 | 0.00 | 0.00 | 0.00 | 60 | 1011.7 |
| 20260902213650 | 32 | 175 | 6.4 | 17.7 | 0.00 | 0.00 | 0.00 | 59 | 1011.7 |
| 20260902212642 | 32 | 140 | 6.4 | 22.5 | 0.00 | 0.00 | 0.00 | 57 | 1011.8 |
| 20260902211645 | 32 | 252 | 6.4 | 25.7 | 0.00 | 0.00 | 0.00 | 59 | 1011.9 |
| 20260902210641 | 32 | 169 | 6.4 | 32.2 | 0.00 | 0.00 | 0.00 | 59 | 1012.1 |
| 20260902205640 | 31 | 154 | 3.2 | 11.3 | 0.00 | 0.00 | 0.00 | 60 | 1012.2 |
| 20260902204643 | 32 | 229 | 6.4 | 22.5 | 0.00 | 0.00 | 0.00 | 58 | 1012.3 |
| 20260902203641 | 32 | 171 | 8.0 | 37.0 | 0.00 | 0.00 | 0.00 | 58 | 1012.3 |
| 20260902202640 | 32 | 144 | 6.4 | 25.7 | 0.00 | 0.00 | 0.00 | 57 | 1012.3 |
| 20260902201640 | 32 | 260 | 3.2 | 17.7 | 0.00 | 0.00 | 0.00 | 59 | 1012.5 |